Location: ???? ?????
(30.0052°N, 31.2891°E)
Time: 21:09:35
(UTC+00:00)

Cosmos 2369 Rocket - Pass Details

Date: 26 May 2022
Orbit: 830 x 851 km, 71.0° (Epoch: 04 July)

Event Time Altitude Azimuth Distance (km) Brightness Sun altitude
Rises 01:57:33 0° 328° (NNW) 3,372 5.3 -11.9°
Reaches altitude 10° 02:00:12 10° 318° (NW) 2,436 4.5 -11.4°
Maximum altitude 02:05:06 32° 257° (WSW) 1,386 2.8 -10.5°
Drops below altitude 10° 02:09:59 10° 195° (SSW) 2,431 4.2 -9.6°
Sets 02:12:38 0° 186° (S) 3,364 5.0 -9.1°
